[[{"header":{"parameterUnit":"m.s-1","parameterCategory":1,"la1":30.2991,"la2":30.254,"lo1":-89.0895,"lo2":-89.0444,"dy":0.0017,"dx":0.0017,"nx":28,"ny":28,"refTime":"2024-03-07T09:00:00:Z","depth":0,"parameterNumber":2,"parameterNumberName":"U-component_of_WINDS"},"data":[0,0,0,0,0,0,0,0,0,0,0,0,0,0,0,0,0,0,0,0,0,0,0,0,0,0,0,0,0,0,0,0,0,0,0,0,0,0,0,0,0,0,0,0,0,0,0,0,0,0,0,0,0,0,0,0,0,0,-3.7356,-3.7356,0,-3.7347,-3.7347,-3.7347,-3.7219,-3.7215,-3.7212,-3.7209,-3.7203,-3.7206,-3.7209,0,0,0,0,0,0,0,0,0,0,0,0,0,-3.7267,-3.727,-3.7356,-3.7356,-3.7356,-3.7347,-3.7347,-3.7347,-3.7219,-3.7215,-3.7211,-3.7208,-3.7202,-3.7206,-3.7209,0,0,0,0,0,0,0,0,0,0,0,0,0,-3.7287,-3.727,-3.7356,-3.7291,-3.7285,-3.7347,-3.7347,-3.7346,-3.722,-3.7215,-3.721,-3.7206,-3.7201,-3.7205,-3.721,-3.7334,0,0,-3.7223,-3.7225,0,0,0,0,0,0,0,0,-3.7286,-3.729,-3.7301,-3.7296,-3.7289,-3.7279,-3.7313,-3.7342,-3.7221,-3.7245,-3.7209,-3.7203,-3.7233,-3.7234,-3.7243,-3.7334,-3.7333,-3.7223,-3.7226,-3.7228,-3.7229,0,0,0,0,0,0,0,-3.7285,-3.729,-3.7352,-3.7301,-3.7294,-3.7264,-3.7261,-3.7318,-3.7266,-3.7242,-3.7233,-3.7234,-3.7229,-3.7239,-3.7242,-3.7333,-3.7223,-3.7227,-3.723,-3.7231,-3.7527,-3.7532,0,0,0,0,0,0,-3.7292,-3.729,-3.7353,-3.7352,-3.7275,-3.7269,-3.7266,-3.7287,-3.7265,-3.7257,-3.7238,-3.7228,-3.7234,-3.7237,-3.7241,-3.7386,-3.7228,-3.7232,-3.7234,-3.7522,-3.7528,-3.7534,0,0,0,0,0,0,-3.7291,-3.7299,-3.7353,-3.7318,-3.7323,-3.7276,-3.73,-3.729,-3.73,-3.7262,-3.7252,-3.7258,-3.7231,-3.7235,-3.7312,-3.7384,-3.7234,-3.7238,-3.7516,-3.7524,-3.7531,-3.7677,0,0,0,0,0,0,-3.7289,-3.7299,-3.7345,-3.732,-3.7325,-3.7423,-3.7305,-3.7293,-3.7307,-3.7294,-3.7278,-3.7271,-3.7227,-3.7306,-3.7316,-3.7388,-3.7241,-3.7509,-3.7519,-3.7529,-3.7666,-3.7689,-3.7709,0,0,0,0,0,-3.7286,-3.7387,-3.7348,-3.7356,-3.7381,-3.7427,-3.743,-3.7377,-3.7314,-3.736,-3.7336,-3.7271,-3.7375,-3.7315,-3.7325,-3.7399,-3.7504,-3.7517,-3.7528,-3.7656,-3.7685,-3.7709,0,0,0,0,0,0,-3.7422,-3.7382,-3.7339,-3.7434,-3.7435,-3.7406,-3.7462,-3.7408,-3.7428,-3.7415,-3.7349,-3.7346,-3.7434,-3.7424,-3.7358,-3.7519,-3.7428,-3.7443,-3.7522,-3.7549,-3.7571,-3.7571,-3.7245,0,0,0,0,0,-3.7463,-3.7502,-3.7466,-3.7554,-3.7556,-3.751,-3.7528,-3.7487,-3.7485,-3.7485,-3.7466,-3.7469,-3.7501,-3.7525,-3.7553,-3.7664,-3.7659,-3.772,-3.7741,-3.7759,-3.7773,-3.7832,-3.7859,-3.7573,-3.7573,-3.7573,0,0,-3.7548,-3.7531,-3.756,-3.7581,-3.7576,-3.762,-3.7511,-3.7562,-3.7594,-3.7493,-3.7564,-3.7551,-3.7549,-3.7644,-3.7685,-3.7639,-3.7851,-3.7774,-3.7789,-3.7793,-3.7847,-3.7875,-3.7899,-3.7581,-3.758,-3.7578,0,0,-3.7725,-3.7716,-3.7789,-3.7787,-3.7782,-3.775,-3.7768,-3.7747,-3.7734,-3.7805,-3.773,-3.7769,-3.7826,-3.7828,-3.7837,-3.8018,-3.796,-3.8029,-3.8143,-3.8202,-3.8224,-3.8244,-3.8309,-3.8334,-3.8042,-3.8043,-3.8043,0,-3.7832,-3.7894,-3.7834,-3.789,-3.7902,-3.7812,-3.7886,-3.7887,-3.7893,-3.7904,-3.7851,-3.7923,-3.7915,-3.801,-3.8054,-3.8064,-3.8083,-3.8031,-3.8225,-3.8245,-3.8262,-3.8324,-3.8349,-3.8051,-3.805,-3.8049,-3.8049,0,-3.8026,-3.8071,-3.813,-3.8137,-3.8155,-3.8221,-3.8172,-3.8198,-3.8156,-3.8131,-3.8204,-3.8192,-3.8217,-3.8236,-3.8195,-3.8326,-3.8298,-3.8237,-3.8144,-3.8299,-3.8356,-3.8379,-3.8063,-3.806,-3.8058,-3.8056,0,0,-3.8289,-3.8261,-3.8285,-3.8287,-3.8275,-3.8309,-3.8371,-3.8394,-3.8419,-3.8426,-3.8477,-3.8529,-3.8473,-3.8483,-3.8442,-3.8493,-3.8639,-3.8426,-3.8425,-3.8467,-3.8784,-3.883,-3.8859,-3.86,-3.8604,-3.8608,-3.8784,0,-3.8461,-3.8563,-3.8512,-3.8622,-3.8663,-3.8579,-3.8633,-3.8633,-3.8611,-3.8644,-3.862,-3.8658,-3.8581,-3.8586,-3.8634,-3.8611,-3.8702,-3.8598,-3.8649,-3.8651,-3.8653,-3.8888,-3.8937,-3.9104,-3.8806,-3.881,-3.8812,0,-3.8675,-3.8691,-3.8805,-3.8787,-3.8802,-3.8851,-3.8869,-3.8901,-3.89,-3.8881,-3.8893,-3.884,-3.8901,-3.881,-3.8894,-3.8824,-3.8842,-3.8835,-3.884,-3.8843,-3.8742,-3.8899,-3.9156,-3.9182,-3.8847,-3.8844,-3.8842,0,-3.8856,-3.8906,-3.8981,-3.8985,-3.8966,-3.9003,-3.8997,-3.899,-3.9008,-3.9025,-3.9036,-3.906,-3.9073,-3.9094,-3.9049,-3.8986,-3.914,-3.9044,-3.9127,-3.9129,-3.9164,-3.9163,-3.9429,-3.9175,-3.9174,-3.9174,-3.9173,0,-3.9054,-3.9128,-3.9062,-3.9108,-3.9189,-3.9129,-3.9211,-3.9196,-3.9191,-3.9234,-3.9163,-3.9206,-3.9144,-3.9181,-3.9147,-3.9223,-3.9229,-3.9216,-3.9207,-3.9223,-3.9225,-3.9235,-3.9222,-3.9181,-3.9179,-3.9178,-3.9177,0,-3.927,-3.9229,-3.9305,-3.9281,-3.9277,-3.9337,-3.9317,-3.936,-3.9333,-3.9389,-3.9399,-3.9358,-3.9398,-3.9356,-3.9392,-3.9369,-3.9472,-3.9445,-3.9472,-3.9465,-3.9551,-3.9544,-3.9833,-3.9868,-3.9591,-3.9594,-3.9596,0,-3.94,-3.9454,-3.9436,-3.9459,-3.9457,-3.9496,-3.9513,-3.9458,-3.948,-3.9483,-3.9526,-3.956,-3.9583,-3.9651,-3.9626,-3.9654,-3.9628,-3.9727,-3.9632,-3.9647,-3.9631,-3.9628,-3.9634,-3.9747,-3.975,-3.9753,-3.9755,0,-3.9634,-3.9611,-3.9639,-3.9661,-3.9684,-3.9699,-3.9708,-3.9732,-3.9674,-3.9703,-3.9742,-3.9761,-3.9798,-3.9833,-3.9854,-3.9849,-3.9794,-3.9785,-3.9806,-3.9824,-3.9838,-3.9833,-3.9526,-3.9779,-3.9777,-3.9775,-3.9774,-3.9773,-3.9811,-3.9856,-3.9851,-3.9885,-3.9886,-3.9897,-3.9936,-3.9915,-3.9946,-3.9972,-3.9937,-3.9987,-3.9986,-4.0008,-4.001,-4.0049,-4.0007,-4.0037,-4.0044,-4.0053,-4.0066,-3.9832,-4.0052,-4.0051,-4.0051,-4.005,-4.005,0,-4.0042,-4.0035,-4.0067,-4.0082,-4.011,-4.0054,-4.0062,-4.0089,-4.0133,-4.0136,-4.0161,-4.0208,-4.0241,-4.0219,-4.0248,-4.0284,-4.0259,-4.0293,-4.0291,-4.0291,-4.0101,-4.0081,-4.0313,-4.0313,-4.0313,-4.0313,-4.0313,-4.0313,-4.0166,-4.024,-4.0217,-4.0291,-4.0283,-4.033,-4.034,-4.035,-4.0353,-4.0407,-4.0435,-4.042,-4.0413,-4.0442,-4.0471,-4.0464,-4.0478,-4.0522,-4.0506,-4.033,-4.0304,-4.0279,-4.026,-4.0525,-4.0526,-4.0692,-4.0693,-4.0695]},{"header":{"parameterUnit":"m.s-1","parameterCategory":1,"la1":30.2991,"la2":30.254,"lo1":-89.0895,"lo2":-89.0444,"dy":0.0017,"dx":0.0017,"nx":28,"ny":28,"refTime":"2024-03-07T09:00:00:Z","depth":0,"parameterNumber":3,"parameterNumberName":"V-component_of_WINDS"},"data":[0,0,0,0,0,0,0,0,0,0,0,0,0,0,0,0,0,0,0,0,0,0,0,0,0,0,0,0,0,0,0,0,0,0,0,0,0,0,0,0,0,0,0,0,0,0,0,0,0,0,0,0,0,0,0,0,0,0,-0.5392,-0.5392,0,-0.5428,-0.5429,-0.5429,-0.5458,-0.5459,-0.5459,-0.5459,-0.5495,-0.5495,-0.5496,0,0,0,0,0,0,0,0,0,0,0,0,0,-0.5345,-0.5346,-0.5392,-0.5392,-0.5393,-0.5428,-0.5429,-0.5429,-0.5458,-0.5459,-0.5459,-0.5459,-0.5494,-0.5495,-0.5496,0,0,0,0,0,0,0,0,0,0,0,0,0,-0.5372,-0.5346,-0.5392,-0.5412,-0.5414,-0.5428,-0.5429,-0.5429,-0.5458,-0.5459,-0.5459,-0.546,-0.5494,-0.5495,-0.5496,-0.5493,0,0,-0.5499,-0.55,0,0,0,0,0,0,0,0,-0.537,-0.5374,-0.5408,-0.541,-0.5413,-0.5439,-0.5425,-0.5451,-0.5458,-0.5441,-0.5459,-0.546,-0.5476,-0.5478,-0.5484,-0.5495,-0.5496,-0.5499,-0.55,-0.55,-0.55,0,0,0,0,0,0,0,-0.5368,-0.5372,-0.5406,-0.5409,-0.5412,-0.5418,-0.5422,-0.543,-0.5455,-0.5443,-0.5445,-0.5449,-0.5477,-0.5483,-0.5485,-0.5497,-0.5499,-0.55,-0.5501,-0.5501,-0.5505,-0.5504,0,0,0,0,0,0,-0.5364,-0.537,-0.5405,-0.5407,-0.5392,-0.5418,-0.5423,-0.543,-0.5455,-0.546,-0.5449,-0.545,-0.5481,-0.5484,-0.5486,-0.5483,-0.55,-0.5501,-0.5502,-0.5505,-0.5505,-0.5504,0,0,0,0,0,0,-0.5363,-0.5367,-0.5404,-0.5389,-0.5395,-0.5419,-0.5426,-0.5431,-0.5437,-0.546,-0.5464,-0.545,-0.5482,-0.5485,-0.5491,-0.5485,-0.5502,-0.5502,-0.5506,-0.5505,-0.5504,-0.5478,0,0,0,0,0,0,-0.5361,-0.5366,-0.5366,-0.5389,-0.5395,-0.5408,-0.5426,-0.5431,-0.5439,-0.5441,-0.5463,-0.5466,-0.5482,-0.5489,-0.5492,-0.5487,-0.5503,-0.5506,-0.5505,-0.5505,-0.5479,-0.5476,-0.5473,0,0,0,0,0,-0.5359,-0.5357,-0.5366,-0.537,-0.5396,-0.5408,-0.5411,-0.543,-0.5438,-0.5437,-0.5452,-0.5466,-0.5485,-0.549,-0.5493,-0.5488,-0.5507,-0.5506,-0.5505,-0.548,-0.5477,-0.5473,0,0,0,0,0,0,-0.5333,-0.5361,-0.5371,-0.5376,-0.5389,-0.5413,-0.5413,-0.5426,-0.5437,-0.5438,-0.546,-0.5465,-0.5468,-0.5479,-0.5483,-0.5485,-0.5498,-0.5497,-0.5478,-0.5475,-0.5472,-0.5469,-0.5504,0,0,0,0,0,-0.5327,-0.5335,-0.5359,-0.5362,-0.5368,-0.5389,-0.5395,-0.5408,-0.5423,-0.5428,-0.5443,-0.5456,-0.5465,-0.5471,-0.548,-0.5481,-0.5485,-0.5479,-0.5476,-0.5473,-0.5472,-0.5472,-0.5469,-0.55,-0.55,-0.55,0,0,-0.5316,-0.5333,-0.5337,-0.5356,-0.5368,-0.5375,-0.5394,-0.5401,-0.5406,-0.5429,-0.5436,-0.5447,-0.5463,-0.5465,-0.5467,-0.5474,-0.5465,-0.5472,-0.547,-0.547,-0.547,-0.5467,-0.5465,-0.55,-0.55,-0.55,0,0,-0.53,-0.5314,-0.5316,-0.5327,-0.5345,-0.5359,-0.5359,-0.5381,-0.5389,-0.5396,-0.5413,-0.5419,-0.5434,-0.5444,-0.5451,-0.5437,-0.5449,-0.5439,-0.5424,-0.5423,-0.5421,-0.5418,-0.5412,-0.5409,-0.5438,-0.5438,-0.5438,0,-0.5284,-0.5296,-0.5316,-0.5321,-0.5329,-0.535,-0.5352,-0.5362,-0.5382,-0.5386,-0.5394,-0.5412,-0.5424,-0.5429,-0.5425,-0.543,-0.5431,-0.5437,-0.5419,-0.5417,-0.5416,-0.541,-0.5407,-0.5437,-0.5437,-0.5437,-0.5437,0,-0.5275,-0.5282,-0.5282,-0.5301,-0.5308,-0.5312,-0.5331,-0.5336,-0.5348,-0.536,-0.5366,-0.5381,-0.5393,-0.5396,-0.5407,-0.5401,-0.5405,-0.5415,-0.5429,-0.5411,-0.5406,-0.5404,-0.5435,-0.5435,-0.5436,-0.5436,0,0,-0.5243,-0.5271,-0.5271,-0.5279,-0.5299,-0.5305,-0.5308,-0.5321,-0.5324,-0.5336,-0.5339,-0.5351,-0.536,-0.5368,-0.5381,-0.538,-0.5366,-0.5391,-0.5392,-0.5385,-0.5358,-0.5349,-0.5346,-0.5374,-0.5374,-0.5374,-0.5356,0,-0.5229,-0.5238,-0.5255,-0.5258,-0.5265,-0.5284,-0.5287,-0.5299,-0.5311,-0.5317,-0.5329,-0.5337,-0.535,-0.5354,-0.5354,-0.5367,-0.536,-0.5369,-0.5376,-0.5376,-0.5371,-0.5344,-0.5335,-0.5318,-0.5355,-0.5354,-0.5354,0,-0.5215,-0.5226,-0.5229,-0.5247,-0.525,-0.5253,-0.5264,-0.5271,-0.5284,-0.5292,-0.53,-0.5314,-0.5318,-0.533,-0.5334,-0.534,-0.5343,-0.535,-0.535,-0.5351,-0.5364,-0.5343,-0.5313,-0.531,-0.5351,-0.5351,-0.5352,0,-0.519,-0.5205,-0.5209,-0.5215,-0.5237,-0.5238,-0.5246,-0.526,-0.5266,-0.5276,-0.5279,-0.5289,-0.5294,-0.5301,-0.5317,-0.5324,-0.5319,-0.5333,-0.5325,-0.5324,-0.5323,-0.5322,-0.5292,-0.5326,-0.5326,-0.5326,-0.5326,0,-0.5173,-0.5174,-0.5198,-0.52,-0.5201,-0.522,-0.522,-0.5231,-0.5243,-0.5246,-0.5264,-0.5267,-0.5287,-0.5292,-0.5304,-0.5305,-0.5308,-0.5314,-0.5317,-0.5312,-0.5311,-0.5314,-0.5316,-0.5326,-0.5326,-0.5326,-0.5326,0,-0.5145,-0.5162,-0.5167,-0.5186,-0.5191,-0.5191,-0.5207,-0.5209,-0.5221,-0.5225,-0.5227,-0.5246,-0.5252,-0.5268,-0.5279,-0.5287,-0.5285,-0.5291,-0.528,-0.5282,-0.5273,-0.5273,-0.5243,-0.5239,-0.5276,-0.5276,-0.5276,0,-0.5133,-0.5134,-0.5153,-0.5157,-0.5165,-0.5171,-0.5176,-0.5194,-0.5199,-0.5213,-0.5213,-0.5221,-0.5228,-0.5237,-0.5251,-0.5259,-0.5265,-0.5254,-0.5266,-0.5261,-0.5263,-0.5263,-0.5262,-0.5251,-0.525,-0.525,-0.525,0,-0.5108,-0.5116,-0.5123,-0.5133,-0.5139,-0.5147,-0.5157,-0.5159,-0.5179,-0.5183,-0.519,-0.5195,-0.5205,-0.5212,-0.5222,-0.523,-0.5243,-0.5246,-0.5244,-0.5239,-0.5232,-0.5234,-0.5272,-0.5246,-0.5247,-0.5247,-0.5247,-0.5247,-0.5088,-0.5089,-0.5102,-0.5109,-0.5118,-0.5125,-0.5128,-0.5139,-0.5146,-0.5155,-0.5166,-0.5171,-0.5182,-0.5197,-0.5204,-0.5207,-0.5214,-0.5212,-0.5211,-0.521,-0.5207,-0.5232,-0.5209,-0.5209,-0.5209,-0.521,-0.521,0,-0.5063,-0.5072,-0.5078,-0.509,-0.5095,-0.5107,-0.5117,-0.512,-0.5125,-0.5135,-0.5141,-0.5147,-0.5154,-0.5168,-0.5175,-0.5175,-0.5181,-0.5176,-0.5176,-0.5178,-0.5202,-0.5202,-0.5172,-0.5172,-0.5172,-0.5172,-0.5172,-0.5172,-0.5051,-0.5053,-0.5062,-0.5067,-0.5076,-0.5081,-0.5086,-0.5093,-0.5101,-0.5107,-0.5113,-0.5122,-0.5133,-0.5141,-0.5146,-0.515,-0.5152,-0.5145,-0.515,-0.5173,-0.5176,-0.518,-0.518,-0.5145,-0.5145,-0.5126,-0.5126,-0.5126]}]]